QPF
0.00 0.00 0.00 0.00 0.00 0.01 0.01 0.02 0.02 0.02 0.01 0.02 0.02 0.02 0.03 0.03 0.03 0.04 0.06 0.07 0.06 0.04 0.02 0.01 0.02 0.02 0.04 0.09 0.13 0.14 0.11 0.08 0.06 0.05 0.05 0.04 0.04 0.04 0.04 0.05 0.04 0.03 0.03 0.02
0.00 0.00 0.00 0.01 0.01 0.01 0.01 0.01 0.02 0.02 0.02 0.02 0.02 0.02 0.03 0.03 0.03 0.03 0.03 0.03 0.03 0.02 0.02 0.02 0.02 0.02 0.04 0.10 0.14 0.14 0.14 0.11 0.08 0.07 0.07 0.05 0.04 0.03 0.04 0.04 0.03 0.02 0.02 0.02
0.00 0.00 0.00 0.01 0.00 0.01 0.01 0.01 0.01 0.01 0.01 0.02 0.02 0.03 0.04 0.03 0.03 0.02 0.02 0.02 0.02 0.02 0.03 0.03 0.02 0.03 0.04 0.06 0.10 0.12 0.13 0.13 0.11 0.09 0.08 0.06 0.05 0.04 0.04 0.04 0.03 0.02 0.02 0.01
0.01 0.01 0.01 0.01 0.00 0.01 0.02 0.01 0.01 0.01 0.02 0.01 0.02 0.02 0.03 0.03 0.02 0.02 0.02 0.02 0.02 0.02 0.02 0.02 0.02 0.03 0.04 0.05 0.07 0.08 0.10 0.12 0.13 0.12 0.09 0.07 0.06 0.05 0.05 0.03 0.03 0.04 0.03 0.03
0.01 0.01 0.01 0.01 0.01 0.01 0.02 0.01 0.01 0.02 0.03 0.03 0.03 0.02 0.02 0.02 0.03 0.03 0.02 0.02 0.02 0.02 0.03 0.02 0.02 0.03 0.03 0.05 0.05 0.05 0.07 0.10 0.12 0.12 0.09 0.07 0.06 0.05 0.04 0.03 0.02 0.02 0.01 0.02
0.01 0.02 0.01 0.01 0.01 0.01 0.02 0.02 0.02 0.02 0.03 0.03 0.02 0.02 0.03 0.02 0.02 0.02 0.02 0.01 0.01 0.02 0.02 0.02 0.02 0.03 0.03 0.04 0.04 0.05 0.06 0.08 0.09 0.08 0.08 0.07 0.04 0.03 0.03 0.03 0.03 0.02 0.02 0.01
0.02 0.02 0.01 0.01 0.01 0.01 0.02 0.02 0.03 0.02 0.03 0.04 0.03 0.02 0.03 0.03 0.02 0.02 0.02 0.02 0.02 0.03 0.04 0.04 0.03 0.03 0.03 0.03 0.03 0.04 0.05 0.05 0.05 0.05 0.05 0.06 0.05 0.04 0.02 0.02 0.02 0.02 0.02 0.02
0.02 0.02 0.01 0.01 0.01 0.02 0.03 0.02 0.04 0.04 0.04 0.05 0.05 0.04 0.03 0.03 0.04 0.03 0.02 0.02 0.02 0.02 0.05 0.06 0.05 0.05 0.04 0.03 0.03 0.04 0.04 0.04 0.04 0.03 0.03 0.03 0.04 0.04 0.03 0.02 0.02 0.02 0.02 0.02
0.02 0.02 0.01 0.02 0.03 0.04 0.05 0.05 0.04 0.04 0.05 0.07 0.06 0.04 0.03 0.03 0.03 0.03 0.03 0.04 0.04 0.04 0.05 0.06 0.06 0.08 0.07 0.05 0.05 0.05 0.04 0.04 0.04 0.03 0.03 0.03 0.03 0.03 0.03 0.03 0.03 0.01 0.01 0.01
0.02 0.03 0.03 0.04 0.04 0.03 0.04 0.05 0.05 0.04 0.06 0.08 0.07 0.05 0.05 0.05 0.04 0.03 0.03 0.04 0.05 0.04 0.04 0.05 0.06 0.07 0.09 0.09 0.07 0.05 0.04 0.03 0.03 0.03 0.03 0.03 0.03 0.03 0.03 0.02 0.02 0.01 0.01 0.01
0.01 0.01 0.01 0.01 0.01 0.01 0.01 0.02 0.02 0.02 0.04 0.06 0.06 0.05 0.05 0.06 0.05 0.04 0.04 0.04 0.04 0.04 0.04 0.05 0.05 0.04 0.05 0.07 0.10 0.07 0.05 0.04 0.03 0.04 0.04 0.04 0.03 0.03 0.03 0.03 0.02 0.01 0.02 0.02
0.01 0.01 0.01 0.01 0.01 0.01 0.00 0.00 0.01 0.01 0.02 0.03 0.04 0.03 0.03 0.04 0.04 0.04 0.04 0.04 0.03 0.03 0.04 0.05 0.04 0.02 0.02 0.03 0.07 0.09 0.08 0.05 0.03 0.03 0.04 0.03 0.03 0.02 0.02 0.02 0.02 0.01 0.01 0.02
0.01 0.02 0.01 0.00 0.00 0.00 0.01 0.01 0.01 0.01 0.02 0.03 0.03 0.02 0.02 0.04 0.04 0.04 0.04 0.04 0.03 0.03 0.03 0.03 0.03 0.02 0.01 0.02 0.03 0.05 0.08 0.08 0.06 0.04 0.03 0.03 0.03 0.02 0.02 0.02 0.02 0.01 0.01 0.01
0.01 0.01 0.00 0.00 0.01 0.00 0.01 0.01 0.01 0.01 0.02 0.03 0.03 0.02 0.03 0.04 0.04 0.04 0.04 0.04 0.04 0.03 0.02 0.02 0.02 0.02 0.01 0.01 0.02 0.03 0.05 0.07 0.07 0.06 0.05 0.05 0.05 0.04 0.02 0.01 0.01 0.01 0.01 0.02
0.01 0.01 0.01 0.01 0.02 0.02 0.02 0.02 0.01 0.01 0.02 0.03 0.03 0.02 0.02 0.03 0.03 0.03 0.03 0.03 0.03 0.02 0.01 0.01 0.01 0.01 0.01 0.01 0.01 0.03 0.04 0.04 0.04 0.05 0.06 0.06 0.06 0.08 0.07 0.04 0.02 0.01 0.01 0.01
0.02 0.01 0.01 0.01 0.02 0.03 0.03 0.03 0.02 0.02 0.03 0.03 0.03 0.03 0.02 0.02 0.02 0.02 0.02 0.02 0.02 0.02 0.01 0.01 0.01 0.01 0.01 0.01 0.01 0.02 0.03 0.03 0.03 0.04 0.05 0.06 0.05 0.07 0.10 0.09 0.07 0.04 0.02 0.02
0.02 0.02 0.02 0.02 0.02 0.03 0.04 0.04 0.02 0.01 0.01 0.02 0.02 0.02 0.02 0.02 0.03 0.03 0.03 0.02 0.02 0.01 0.01 0.01 0.01 0.01 0.01 0.01 0.01 0.02 0.03 0.04 0.04 0.04 0.05 0.05 0.05 0.07 0.09 0.09 0.09 0.06 0.05 0.05
0.01 0.01 0.01 0.01 0.01 0.03 0.03 0.04 0.02 0.01 0.01 0.01 0.01 0.01 0.02 0.02 0.02 0.02 0.02 0.02 0.01 0.01 0.01 0.01 0.01 0.00 0.00 0.00 0.01 0.01 0.03 0.04 0.05 0.05 0.05 0.06 0.05 0.06 0.08 0.07 0.06 0.06 0.05 0.05
0.02 0.01 0.01 0.01 0.01 0.02 0.03 0.03 0.02 0.02 0.01 0.00 0.00 0.00 0.01 0.01 0.01 0.01 0.02 0.02 0.02 0.02 0.01 0.01 0.01 0.00 0.00 0.00 0.01 0.01 0.01 0.02 0.03 0.05 0.07 0.06 0.05 0.04 0.04 0.04 0.04 0.04 0.04 0.04
0.03 0.02 0.01 0.01 0.01 0.01 0.01 0.02 0.03 0.02 0.01 0.01 0.00 0.00 0.01 0.01 0.01 0.01 0.01 0.01 0.01 0.02 0.01 0.01 0.00 0.00 0.00 0.00 0.01 0.01 0.01 0.01 0.02 0.02 0.05 0.07 0.05 0.03 0.02 0.02 0.02 0.02 0.02 0.02
0.03 0.03 0.02 0.01 0.01 0.01 0.01 0.02 0.02 0.01 0.01 0.01 0.01 0.01 0.01 0.01 0.01 0.01 0.01 0.01 0.01 0.01 0.01 0.01 0.00 0.00 0.00 0.00 0.01 0.01 0.00 0.01 0.01 0.01 0.02 0.04 0.05 0.04 0.03 0.02 0.02 0.02 0.02 0.02
0.03 0.03 0.02 0.02 0.01 0.01 0.01 0.02 0.02 0.01 0.01 0.01 0.01 0.01 0.01 0.01 0.00 0.00 0.00 0.01 0.01 0.01 0.01 0.01 0.01 0.00 0.00 0.00 0.01 0.01 0.01 0.01 0.02 0.02 0.02 0.03 0.03 0.03 0.04 0.04 0.04 0.03 0.02 0.02
0.02 0.02 0.02 0.01 0.01 0.01 0.01 0.02 0.01 0.01 0.01 0.01 0.01 0.01 0.01 0.01 0.01 0.01 0.00 0.01 0.02 0.01 0.01 0.01 0.01 0.00 0.00 0.00 0.01 0.01 0.01 0.01 0.02 0.03 0.02 0.02 0.02 0.02 0.02 0.02 0.03 0.04 0.03 0.02
0.01 0.01 0.01 0.01 0.01 0.02 0.02 0.02 0.01 0.01 0.01 0.01 0.01 0.01 0.01 0.01 0.01 0.00 0.00 0.01 0.02 0.02 0.02 0.02 0.01 0.01 0.01 0.01 0.01 0.01 0.01 0.01 0.01 0.02 0.01 0.01 0.01 0.01 0.01 0.01 0.02 0.02 0.02 0.02
0.01 0.01 0.01 0.01 0.01 0.01 0.01 0.01 0.01 0.01 0.02 0.01 0.01 0.00 0.00 0.00 0.00 0.00 0.01 0.01 0.01 0.02 0.02 0.02 0.02 0.01 0.01 0.01 0.01 0.02 0.02 0.01 0.01 0.01 0.01 0.01 0.01 0.01 0.01 0.01 0.01 0.01 0.01 0.01
0.01 0.01 0.01 0.01 0.00 0.01 0.01 0.01 0.01 0.01 0.01 0.00 0.00 0.00 0.00 0.00 0.00 0.00 0.00 0.00 0.00 0.01 0.01 0.01 0.01 0.01 0.01 0.00 0.00 0.01 0.01 0.01 0.01 0.01 0.01 0.01 0.01 0.01 0.01 0.01 0.01 0.01 0.01 0.01
0.01 0.01 0.01 0.01 0.00 0.00 0.01 0.01 0.01 0.01 0.01 0.01 0.01 0.00 0.00 0.00 0.00 0.00 0.00 0.00 0.00 0.01 0.01 0.00 0.00 0.00 0.00 0.00 0.00 0.01 0.01 0.01 0.01 0.01 0.02 0.02 0.01 0.02 0.01 0.02 0.02 0.01 0.01 0.01
MSLP
1011.28 1011.11 1010.95 1010.80 1010.67 1010.52 1010.32 1010.04 1009.65 1009.15 1008.54 1007.84 1007.08 1006.31 1005.59 1004.96 1004.46 1004.11 1003.91 1003.86 1003.94 1004.14 1004.42 1004.79 1005.23 1005.73 1006.30 1006.93 1007.63 1008.37 1009.14 1009.93 1010.71 1011.47 1012.18 1012.85 1013.46 1014.02 1014.55 1015.04 1015.50 1015.95 1016.37 1016.78
1011.60 1011.34 1011.04 1010.72 1010.38 1010.03 1009.65 1009.24 1008.78 1008.28 1007.74 1007.15 1006.53 1005.92 1005.33 1004.79 1004.32 1003.94 1003.67 1003.51 1003.46 1003.53 1003.71 1003.99 1004.39 1004.88 1005.47 1006.15 1006.89 1007.68 1008.49 1009.31 1010.11 1010.87 1011.59 1012.26 1012.88 1013.46 1014.00 1014.51 1015.00 1015.46 1015.91 1016.34
1011.84 1011.50 1011.09 1010.63 1010.13 1009.63 1009.11 1008.61 1008.10 1007.60 1007.10 1006.59 1006.07 1005.55 1005.03 1004.53 1004.06 1003.63 1003.28 1003.01 1002.85 1002.81 1002.91 1003.15 1003.52 1004.03 1004.65 1005.37 1006.16 1007.00 1007.84 1008.67 1009.48 1010.24 1010.95 1011.62 1012.24 1012.83 1013.39 1013.92 1014.44 1014.93 1015.40 1015.85
1012.07 1011.65 1011.15 1010.59 1009.99 1009.38 1008.78 1008.21 1007.67 1007.17 1006.68 1006.22 1005.74 1005.26 1004.76 1004.25 1003.74 1003.25 1002.81 1002.45 1002.20 1002.09 1002.14 1002.35 1002.73 1003.26 1003.92 1004.69 1005.52 1006.37 1007.23 1008.07 1008.86 1009.61 1010.31 1010.96 1011.58 1012.18 1012.76 1013.32 1013.86 1014.38 1014.88 1015.35
1012.33 1011.85 1011.28 1010.65 1009.98 1009.31 1008.67 1008.06 1007.50 1006.98 1006.50 1006.04 1005.57 1005.08 1004.56 1004.02 1003.46 1002.90 1002.39 1001.96 1001.65 1001.49 1001.51 1001.71 1002.10 1002.66 1003.35 1004.14 1004.99 1005.85 1006.71 1007.52 1008.29 1009.01 1009.68 1010.32 1010.94 1011.54 1012.14 1012.73 1013.30 1013.86 1014.38 1014.87
1012.61 1012.07 1011.45 1010.77 1010.07 1009.38 1008.71 1008.08 1007.50 1006.98 1006.48 1006.00 1005.52 1005.00 1004.45 1003.86 1003.25 1002.64 1002.08 1001.61 1001.26 1001.09 1001.10 1001.31 1001.71 1002.28 1002.98 1003.77 1004.60 1005.45 1006.27 1007.04 1007.77 1008.45 1009.09 1009.71 1010.32 1010.93 1011.55 1012.16 1012.77 1013.35 1013.90 1014.41
1012.88 1012.27 1011.61 1010.91 1010.19 1009.48 1008.80 1008.17 1007.59 1007.05 1006.54 1006.04 1005.52 1004.98 1004.40 1003.78 1003.14 1002.51 1001.94 1001.46 1001.11 1000.94 1000.96 1001.17 1001.58 1002.14 1002.82 1003.58 1004.37 1005.16 1005.92 1006.63 1007.30 1007.93 1008.53 1009.13 1009.73 1010.35 1010.98 1011.61 1012.25 1012.86 1013.44 1013.98
1013.03 1012.37 1011.67 1010.95 1010.22 1009.51 1008.84 1008.20 1007.62 1007.07 1006.55 1006.03 1005.51 1004.95 1004.36 1003.75 1003.12 1002.52 1001.97 1001.52 1001.21 1001.06 1001.10 1001.32 1001.70 1002.23 1002.87 1003.56 1004.28 1004.99 1005.66 1006.29 1006.89 1007.45 1008.01 1008.57 1009.16 1009.77 1010.41 1011.06 1011.72 1012.36 1012.97 1013.54
1012.97 1012.27 1011.54 1010.80 1010.07 1009.37 1008.70 1008.08 1007.49 1006.95 1006.42 1005.91 1005.39 1004.86 1004.30 1003.73 1003.16 1002.63 1002.15 1001.77 1001.53 1001.43 1001.49 1001.71 1002.08 1002.56 1003.12 1003.72 1004.34 1004.94 1005.51 1006.04 1006.55 1007.04 1007.54 1008.06 1008.61 1009.21 1009.84 1010.50 1011.17 1011.84 1012.47 1013.07
1012.63 1011.89 1011.14 1010.40 1009.68 1008.99 1008.33 1007.72 1007.15 1006.62 1006.11 1005.63 1005.15 1004.67 1004.18 1003.70 1003.24 1002.82 1002.46 1002.19 1002.04 1002.01 1002.11 1002.34 1002.67 1003.09 1003.57 1004.06 1004.56 1005.04 1005.48 1005.91 1006.31 1006.72 1007.15 1007.61 1008.12 1008.68 1009.29 1009.94 1010.61 1011.28 1011.94 1012.57
1011.95 1011.19 1010.45 1009.72 1009.01 1008.34 1007.71 1007.12 1006.58 1006.08 1005.62 1005.19 1004.78 1004.39 1004.02 1003.67 1003.36 1003.09 1002.88 1002.75 1002.71 1002.77 1002.92 1003.16 1003.47 1003.82 1004.20 1004.59 1004.96 1005.31 1005.63 1005.94 1006.24 1006.55 1006.88 1007.27 1007.71 1008.22 1008.78 1009.40 1010.05 1010.71 1011.38 1012.04
1010.95 1010.21 1009.48 1008.78 1008.11 1007.48 1006.89 1006.35 1005.85 1005.41 1005.01 1004.66 1004.35 1004.08 1003.85 1003.67 1003.53 1003.44 1003.41 1003.43 1003.53 1003.68 1003.89 1004.14 1004.43 1004.73 1005.02 1005.30 1005.56 1005.78 1005.98 1006.17 1006.36 1006.56 1006.80 1007.10 1007.46 1007.88 1008.37 1008.93 1009.53 1010.17 1010.83 1011.49
1009.73 1009.02 1008.33 1007.68 1007.06 1006.49 1005.97 1005.49 1005.07 1004.70 1004.39 1004.14 1003.96 1003.83 1003.77 1003.76 1003.80 1003.90 1004.04 1004.23 1004.45 1004.71 1004.98 1005.25 1005.52 1005.77 1005.99 1006.18 1006.33 1006.44 1006.53 1006.61 1006.69 1006.79 1006.92 1007.11 1007.37 1007.69 1008.09 1008.56 1009.09 1009.68 1010.30 1010.95
1008.41 1007.74 1007.11 1006.52 1005.99 1005.50 1005.06 1004.68 1004.35 1004.08 1003.89 1003.76 1003.72 1003.74 1003.84 1004.01 1004.23 1004.50 1004.81 1005.14 1005.48 1005.82 1006.14 1006.44 1006.69 1006.90 1007.06 1007.17 1007.23 1007.25 1007.24 1007.22 1007.20 1007.19 1007.22 1007.31 1007.45 1007.66 1007.95 1008.32 1008.76 1009.26 1009.83 1010.43
1007.11 1006.49 1005.94 1005.44 1005.00 1004.62 1004.29 1004.02 1003.82 1003.68 1003.61 1003.63 1003.72 1003.90 1004.15 1004.47 1004.84 1005.26 1005.70 1006.14 1006.58 1006.98 1007.34 1007.64 1007.88 1008.05 1008.16 1008.20 1008.18 1008.12 1008.03 1007.92 1007.81 1007.72 1007.65 1007.63 1007.66 1007.76 1007.94 1008.19 1008.52 1008.93 1009.41 1009.95
1005.96 1005.40 1004.92 1004.53 1004.20 1003.95 1003.76 1003.63 1003.56 1003.57 1003.64 1003.79 1004.03 1004.34 1004.72 1005.17 1005.66 1006.18 1006.71 1007.22 1007.71 1008.14 1008.50 1008.79 1009.00 1009.13 1009.18 1009.16 1009.08 1008.96 1008.80 1008.62 1008.44 1008.27 1008.12 1008.00 1007.94 1007.93 1007.99 1008.13 1008.35 1008.65 1009.03 1009.48
1005.05 1004.55 1004.16 1003.87 1003.67 1003.56 1003.52 1003.54 1003.63 1003.79 1004.01 1004.30 1004.65 1005.08 1005.56 1006.09 1006.66 1007.23 1007.80 1008.34 1008.82 1009.24 1009.58 1009.83 1009.99 1010.06 1010.06 1009.98 1009.84 1009.66 1009.45 1009.22 1008.98 1008.75 1008.53 1008.34 1008.20 1008.10 1008.06 1008.09 1008.21 1008.39 1008.66 1009.00
1004.42 1003.98 1003.69 1003.51 1003.45 1003.49 1003.61 1003.79 1004.04 1004.34 1004.70 1005.11 1005.57 1006.08 1006.63 1007.20 1007.79 1008.37 1008.92 1009.42 1009.87 1010.23 1010.50 1010.69 1010.78 1010.78 1010.71 1010.58 1010.39 1010.16 1009.90 1009.63 1009.36 1009.08 1008.82 1008.58 1008.37 1008.20 1008.08 1008.02 1008.03 1008.11 1008.27 1008.49
1004.10 1003.74 1003.54 1003.49 1003.57 1003.76 1004.03 1004.37 1004.77 1005.20 1005.68 1006.18 1006.72 1007.28 1007.84 1008.42 1008.98 1009.51 1010.00 1010.43 1010.79 1011.06 1011.25 1011.34 1011.34 1011.27 1011.13 1010.93 1010.69 1010.42 1010.13 1009.83 1009.53 1009.23 1008.94 1008.67 1008.42 1008.19 1008.01 1007.88 1007.80 1007.78 1007.82 1007.93
1004.08 1003.82 1003.73 1003.80 1004.01 1004.34 1004.76 1005.23 1005.75 1006.30 1006.87 1007.44 1008.01 1008.57 1009.12 1009.65 1010.15 1010.60 1011.00 1011.32 1011.57 1011.73 1011.81 1011.80 1011.71 1011.55 1011.34 1011.08 1010.79 1010.49 1010.17 1009.85 1009.53 1009.22 1008.92 1008.62 1008.34 1008.08 1007.85 1007.65 1007.49 1007.38 1007.32 1007.30
1004.35 1004.19 1004.22 1004.41 1004.76 1005.21 1005.75 1006.33 1006.94 1007.57 1008.18 1008.77 1009.34 1009.88 1010.38 1010.83 1011.24 1011.58 1011.86 1012.07 1012.19 1012.24 1012.20 1012.09 1011.92 1011.68 1011.41 1011.10 1010.77 1010.43 1010.10 1009.76 1009.44 1009.12 1008.80 1008.49 1008.19 1007.90 1007.62 1007.36 1007.13 1006.93 1006.76 1006.63
1004.88 1004.84 1004.99 1005.31 1005.76 1006.32 1006.94 1007.60 1008.27 1008.92 1009.54 1010.12 1010.64 1011.12 1011.53 1011.89 1012.19 1012.42 1012.58 1012.66 1012.67 1012.61 1012.48 1012.29 1012.04 1011.74 1011.41 1011.07 1010.71 1010.35 1010.00 1009.66 1009.32 1008.99 1008.66 1008.34 1008.02 1007.69 1007.37 1007.05 1006.74 1006.45 1006.18 1005.94
1005.63 1005.72 1005.99 1006.42 1006.97 1007.60 1008.27 1008.97 1009.64 1010.28 1010.87 1011.39 1011.84 1012.23 1012.54 1012.79 1012.97 1013.09 1013.14 1013.12 1013.04 1012.89 1012.69 1012.43 1012.13 1011.80 1011.45 1011.07 1010.70 1010.33 1009.96 1009.61 1009.26 1008.91 1008.57 1008.23 1007.87 1007.51 1007.14 1006.76 1006.37 1005.99 1005.62 1005.27
1006.55 1006.78 1007.16 1007.68 1008.30 1008.97 1009.67 1010.35 1011.00 1011.58 1012.10 1012.54 1012.90 1013.17 1013.38 1013.51 1013.59 1013.60 1013.56 1013.46 1013.31 1013.11 1012.87 1012.58 1012.26 1011.92 1011.55 1011.17 1010.79 1010.41 1010.04 1009.67 1009.30 1008.94 1008.57 1008.19 1007.80 1007.39 1006.95 1006.51 1006.05 1005.58 1005.11 1004.65
1007.56 1007.92 1008.40 1008.99 1009.65 1010.34 1011.02 1011.66 1012.25 1012.76 1013.19 1013.52 1013.77 1013.94 1014.04 1014.08 1014.06 1013.99 1013.88 1013.73 1013.55 1013.32 1013.07 1012.78 1012.46 1012.12 1011.76 1011.39 1011.00 1010.62 1010.24 1009.85 1009.46 1009.07 1008.66 1008.24 1007.80 1007.34 1006.84 1006.33 1005.79 1005.24 1004.68 1004.13
1008.58 1009.04 1009.61 1010.24 1010.92 1011.59 1012.24 1012.83 1013.34 1013.76 1014.09 1014.32 1014.47 1014.54 1014.55 1014.50 1014.42 1014.30 1014.15 1013.98 1013.78 1013.56 1013.31 1013.04 1012.74 1012.42 1012.08 1011.71 1011.34 1010.95 1010.55 1010.14 1009.73 1009.30 1008.85 1008.38 1007.89 1007.37 1006.82 1006.23 1005.63 1005.00 1004.36 1003.72
1009.49 1010.04 1010.66 1011.32 1012.00 1012.65 1013.25 1013.77 1014.21 1014.55 1014.79 1014.94 1015.00 1015.00 1014.94 1014.85 1014.72 1014.58 1014.42 1014.25 1014.06 1013.86 1013.63 1013.39 1013.12 1012.82 1012.49 1012.14 1011.77 1011.37 1010.96 1010.53 1010.08 1009.61 1009.12 1008.61 1008.07 1007.49 1006.88 1006.25 1005.58 1004.89 1004.19 1003.49
Thickness
5663 5668 5668 5666 5665 5663 5658 5654 5649 5656 5659 5666 5668 5670 5672 5672 5672 5673 5673 5673 5673 5673 5673 5675 5676 5676 5677 5677 5677 5677 5676 5675 5673 5672 5670 5668 5666 5665 5664 5663 5662 5662 5661 5660
5654 5660 5661 5657 5659 5659 5657 5656 5653 5654 5655 5664 5665 5666 5665 5665 5666 5666 5666 5667 5667 5667 5668 5668 5669 5669 5670 5670 5670 5670 5669 5668 5667 5665 5664 5662 5661 5659 5658 5657 5657 5656 5655 5654
5635 5645 5649 5642 5650 5651 5651 5652 5650 5646 5652 5658 5657 5657 5658 5659 5659 5660 5661 5661 5661 5661 5661 5663 5664 5663 5663 5663 5663 5663 5662 5661 5660 5659 5657 5655 5655 5653 5652 5652 5651 5651 5650 5649
5622 5630 5623 5640 5652 5652 5647 5646 5647 5648 5650 5650 5652 5653 5654 5654 5653 5653 5654 5654 5655 5655 5655 5656 5657 5658 5658 5657 5656 5656 5654 5653 5653 5652 5651 5650 5648 5647 5647 5646 5646 5645 5645 5645
5611 5614 5621 5635 5643 5642 5637 5637 5642 5640 5642 5642 5644 5645 5645 5648 5648 5648 5649 5649 5650 5651 5651 5650 5650 5651 5651 5650 5649 5648 5647 5647 5647 5646 5645 5643 5642 5642 5642 5642 5641 5640 5640 5639
5606 5608 5609 5626 5640 5643 5635 5628 5636 5634 5633 5634 5635 5630 5634 5641 5641 5641 5642 5643 5643 5644 5644 5644 5643 5644 5642 5642 5641 5641 5641 5641 5640 5640 5638 5638 5637 5636 5636 5636 5635 5635 5634 5634
5600 5601 5609 5627 5634 5635 5619 5621 5631 5629 5627 5626 5626 5628 5632 5635 5635 5635 5635 5635 5636 5636 5636 5636 5636 5636 5634 5634 5634 5635 5635 5634 5634 5634 5633 5633 5632 5630 5630 5630 5629 5628 5628 5627
5594 5595 5605 5626 5625 5620 5619 5624 5624 5624 5623 5622 5623 5625 5626 5627 5627 5627 5626 5627 5627 5627 5626 5627 5628 5628 5627 5627 5628 5629 5628 5628 5628 5627 5628 5628 5626 5624 5624 5623 5621 5620 5620 5620
5600 5604 5614 5617 5619 5620 5618 5617 5618 5618 5619 5618 5617 5618 5619 5619 5619 5619 5619 5619 5619 5618 5618 5618 5620 5620 5620 5621 5622 5622 5621 5621 5621 5621 5620 5620 5619 5618 5616 5615 5615 5614 5613 5613
5598 5605 5610 5612 5614 5615 5615 5615 5616 5615 5615 5614 5612 5613 5612 5612 5611 5611 5611 5611 5611 5610 5610 5610 5612 5612 5613 5615 5615 5615 5614 5615 5615 5614 5614 5613 5612 5612 5611 5610 5608 5608 5607 5607
5596 5603 5606 5609 5609 5610 5611 5611 5611 5610 5610 5609 5607 5606 5606 5605 5604 5604 5603 5603 5603 5603 5602 5603 5604 5605 5606 5608 5609 5608 5608 5608 5608 5608 5607 5607 5606 5606 5606 5605 5604 5603 5603 5601
5594 5600 5598 5602 5606 5607 5605 5605 5605 5605 5604 5604 5603 5601 5600 5599 5598 5598 5597 5596 5595 5595 5596 5596 5597 5597 5599 5601 5602 5602 5602 5601 5602 5602 5602 5601 5600 5599 5599 5599 5599 5598 5597 5595
5597 5600 5598 5601 5602 5602 5601 5601 5601 5600 5599 5598 5598 5596 5595 5593 5593 5592 5591 5589 5588 5587 5588 5589 5590 5590 5592 5594 5595 5596 5595 5595 5595 5596 5595 5595 5594 5593 5593 5592 5591 5591 5590 5588
5595 5595 5594 5597 5596 5597 5597 5596 5595 5594 5594 5593 5592 5590 5589 5587 5586 5585 5584 5583 5582 5581 5581 5582 5583 5584 5587 5588 5588 5589 5590 5590 5590 5590 5590 5589 5589 5588 5587 5586 5585 5584 5583 5581
5591 5592 5591 5592 5592 5591 5591 5589 5587 5586 5586 5585 5585 5584 5583 5581 5579 5578 5578 5577 5576 5575 5576 5576 5577 5579 5581 5582 5582 5583 5584 5584 5584 5584 5584 5583 5583 5582 5581 5580 5579 5578 5576 5575
5586 5586 5586 5586 5585 5585 5584 5582 5581 5580 5580 5579 5578 5578 5577 5575 5574 5572 5571 5570 5569 5568 5569 5570 5571 5573 5574 5575 5575 5577 5577 5579 5579 5578 5578 5577 5577 5576 5575 5573 5572 5571 5570 5568
5579 5578 5578 5578 5579 5578 5578 5577 5577 5576 5576 5575 5574 5572 5571 5569 5567 5566 5565 5565 5564 5563 5564 5564 5566 5567 5568 5569 5569 5570 5571 5572 5573 5573 5572 5571 5570 5569 5568 5566 5565 5564 5563 5562
5578 5578 5577 5576 5575 5573 5573 5573 5573 5572 5571 5570 5569 5567 5565 5563 5562 5561 5560 5559 5558 5558 5559 5559 5561 5562 5563 5563 5564 5564 5565 5565 5566 5566 5565 5564 5563 5563 5561 5560 5559 5558 5557 5556
5574 5574 5573 5572 5571 5569 5568 5568 5567 5566 5565 5564 5562 5561 5559 5558 5556 5555 5554 5553 5553 5553 5554 5555 5555 5556 5557 5558 5558 5558 5559 5559 5559 5558 5558 5557 5556 5555 5555 5554 5553 5553 5552 5551
5571 5570 5569 5568 5567 5564 5563 5563 5562 5560 5559 5557 5556 5554 5553 5552 5550 5549 5548 5547 5548 5548 5550 5550 5551 5551 5552 5552 5552 5552 5552 5552 5552 5552 5551 5550 5550 5549 5548 5548 5548 5547 5546 5545
5566 5565 5564 5563 5561 5560 5558 5557 5555 5553 5552 5551 5549 5548 5547 5546 5545 5544 5542 5543 5544 5545 5545 5545 5546 5547 5547 5547 5547 5546 5546 5546 5546 5546 5545 5544 5543 5542 5542 5541 5541 5540 5540 5540
5561 5560 5559 5557 5555 5554 5552 5550 5549 5547 5546 5544 5543 5542 5541 5539 5538 5537 5537 5537 5539 5540 5540 5540 5541 5541 5542 5541 5541 5541 5540 5540 5539 5539 5538 5538 5537 5536 5535 5535 5534 5534 5534 5533
5555 5555 5554 5552 5550 5548 5547 5545 5543 5542 5540 5539 5538 5537 5536 5534 5533 5532 5532 5533 5534 5535 5534 5534 5534 5535 5535 5534 5534 5534 5534 5533 5533 5532 5531 5531 5530 5529 5529 5529 5528 5527 5527 5526
5550 5549 5548 5547 5545 5542 5540 5540 5538 5537 5536 5535 5534 5533 5531 5529 5528 5529 5529 5529 5528 5528 5528 5528 5528 5529 5528 5528 5527 5527 5526 5525 5525 5524 5524 5523 5523 5523 5522 5522 5521 5520 5520 5519
5546 5544 5542 5541 5539 5537 5536 5534 5533 5532 5531 5529 5529 5528 5527 5526 5525 5525 5524 5524 5523 5523 5523 5524 5523 5523 5523 5522 5521 5520 5519 5519 5519 5518 5518 5517 5517 5516 5515 5515 5514 5513 5512 5512
5541 5539 5538 5537 5535 5534 5532 5530 5528 5527 5526 5524 5524 5523 5522 5521 5520 5519 5519 5518 5518 5517 5518 5518 5517 5517 5517 5516 5515 5514 5513 5513 5513 5513 5513 5512 5511 5510 5509 5508 5508 5507 5506 5505
5536 5534 5532 5531 5530 5529 5528 5526 5525 5524 5523 5521 5520 5519 5518 5517 5516 5514 5513 5512 5512 5512 5512 5512 5512 5511 5510 5510 5509 5508 5508 5508 5508 5507 5507 5506 5505 5505 5504 5503 5502 5501 5500 5499